Location: Godiavel Galaoual
(15.2485°N, 12.6604°W)
Time: 01:13:56
(UTC+00:00)

Transit 4A - Pass Details

Date: 18 June 2021
Orbit: 872 x 972 km, 66.8° (Epoch: 29 July)

Event Time Altitude Azimuth Distance (km) Brightness Sun altitude
Rises 11:00:26 0° 242° (WSW) 3,590 10.7 62.5°
Reaches altitude 10° 11:04:23 10° 267° (W) 2,624 10.1 63.4°
Maximum altitude 11:07:23 14° 297° (WNW) 2,331 10.0 64.1°
Drops below altitude 10° 11:10:22 10° 327° (NNW) 2,590 10.3 64.7°
Sets 11:14:15 0° 352° (N) 3,509 11.0 65.6°
